Regional Weather Roundup
Issued by NWS

Home | Current Version | Previous Version | Graphics & Text | Print | Product List | Glossary Off
Versions: 1 2 3 4 5 6 7 8 9 10 11 12 13 14 15 16 17 18 19 20 21 22 23 24 25 26 27 28 29 30 31 32 33 34 35 36 37 38 39 40 41 42 43 44 45 46 47 48 49 50

000
ASUS43 KMKX 190921
RWRWI

WISCONSIN REGIONAL WEATHER ROUNDUP
NATIONAL WEATHER SERVICE MILWAUKEE/SULLIVAN WI
400 AM CDT SAT APR 19 2014

NOTE: "FAIR" INDICATES FEW OR NO CLOUDS BELOW 12,000 FEET WITH NO
SIGNIFICANT WEATHER AND/OR OBSTRUCTIONS TO VISIBILITY.

WIZ001-002-006>008-014>016-023>028-191000-
NORTHWEST WISCONSIN

CITY           SKY/WX    TMP DP  RH WIND       PRES   REMARKS
SUPERIOR ARPT  CLOUDY    32  29  89 NE10      30.25F WCI  24
ASHLAND        CLOUDY    30  26  85 E3        30.32F
HAYWARD        MOCLDY    38  23  55 SE12G18   30.27S WCI  30
SIREN          CLOUDY    41  27  56 SE12G20   30.21S
RICE LAKE      PTCLDY    39  28  66 SE17G25   30.26S WCI  29
LADYSMITH      MOCLDY    37  28  69 SE12      30.32S WCI  30
EAU CLAIRE     PTCLDY    39  27  62 SE14G22   30.28S WCI  31
MENOMONIE      MOSUNNY   39  29  68 E14G21    30.25F WCI  30
NEW RICHMOND   MOCLDY    39  28  63 E12G20    30.20R WCI  32
OSCEOLA        CLOUDY    42  29  59 SE17      30.21R
$$

WIZ003>005-009-010-017-018-191000-
NORTH CENTRAL WISCONSIN

CITY           SKY/WX    TMP DP  RH WIND       PRES   REMARKS
WOODRUFF       CLOUDY    33  25  72 SE10      30.35S WCI  25
RHINELANDER    CLOUDY    31  23  72 SE10      30.36S WCI  22
EAGLE RIVER    CLOUDY    31  23  74 SE7       30.36S WCI  24
LAND O LAKES   CLOUDY    31  25  79 SE6       30.37S WCI  25
PHILLIPS       MOCLDY    33  24  70 SE9       30.32F WCI  26
TOMAHAWK       CLOUDY    32  24  73 SE3       30.37S
MEDFORD        CLOUDY    33  25  73 SE9       30.34S WCI  25
MERRILL        CLOUDY    33  26  75 CALM      30.38F
$$

WIZ029-030-035-036-043>047-191000-
CENTRAL WISCONSIN

CITY           SKY/WX    TMP DP  RH WIND       PRES   REMARKS
WAUSAU         MOCLDY    33  25  72 SE12      30.37S WCI  24
MOSINEE        MOCLDY    32  28  86 E6        30.39S WCI  26
MARSHFIELD     CLOUDY    34  26  72 SE14      30.36S WCI  25
STEVENS POINT  MOCLDY    31  25  76 E8        30.40S WCI  24
WAUPACA        MOCLDY    34  27  75 E6        30.42S WCI  29
WAUTOMA        CLOUDY    34  26  72 E6        30.41R WCI  29
WISC RAPIDS    CLOUDY    34  25  69 E10       30.39S WCI  26
CAMP DOUGLAS   CLOUDY    33  27  76 E7        30.36S WCI  27
$$

WIZ011>013-019>022-031-037>040-048>050-191000-
NORTHEAST WISCONSIN

CITY           SKY/WX    TMP DP  RH WIND       PRES   REMARKS
ANTIGO         CLOUDY    30  25  84 SE13      30.39S WCI  20
STURGEON BAY   MOCLDY    30  27  86 E3        30.46R
GREEN BAY      MOCLDY    33  28  81 E6        30.44R WCI  28
MANITOWOC      PTCLDY    33  29  85 E8        30.44R WCI  26
APPLETON       MOCLDY    32  27  80 E5        30.42S WCI  27
CLINTONVILLE   MOCLDY    32  28  86 CALM      30.43S
OSHKOSH        PTCLDY    34  26  72 E9        30.41R WCI  27
$$

WIZ032>034-041-042-053>061-191000-
SOUTHWEST WISCONSIN

CITY           SKY/WX    TMP DP  RH WIND       PRES   REMARKS
LA CROSSE      PTCLDY    41  30  65 SE12      30.31R
SPARTA         MOCLDY    37  26  67 SE12G18   30.35R WCI  29
VIROQUA        FAIR      35  29  80 SE14      30.30S WCI  26
BOSCOBEL       PTCLDY    38  26  62 E7        30.35S WCI  33
PRAIRIE DU CHI PTCLDY    38  28  66 E12G20    30.32F WCI  30
PLATTEVILLE    FAIR      33  28  82 E8        30.34S WCI  26
$$

WIZ056-057-062-063-064-067-068-191000-
SOUTH CENTRAL WISCONSIN

CITY           SKY/WX    TMP DP  RH WIND       PRES   REMARKS
BARABOO/DELLS  PTCLDY    34  24  66 E6        30.36S WCI  29
LONE ROCK      MOCLDY    35  27  72 SE6       30.37R WCI  30
WATERTOWN      CLEAR     34  26  73 E8        30.37R WCI  27
MADISON        CLEAR     34  24  67 E3        30.38S
MIDDLETON      FAIR      36  25  64 E9        30.37S WCI  29
MONROE         CLEAR     34  25  70 E9        30.34R WCI  26
JANESVILLE     CLEAR     34  27  75 E7        30.36R WCI  28
$$

WIZ051-052-058>065-066-070>072-191000-
SOUTHEAST WISCONSIN

CITY           SKY/WX    TMP DP  RH WIND       PRES   REMARKS
MILWAUKEE      PTCLDY    34  28  79 E8        30.41R WCI  27
WAUKESHA       CLEAR     32  27  80 E7        30.40R WCI  26
MILWAUKEE/TIMM CLEAR     34  27  75 NE5       30.41S WCI  30
RACINE         CLEAR     34  28  79 NE8       30.41R WCI  27
BURLINGTON     CLEAR     32  27  81 E6        30.38F WCI  26
KENOSHA        CLEAR     33  27  78 NE9       30.38S WCI  25
FOND DU LAC    PTCLDY    34  25  69 E10       30.40S WCI  26
SHEBOYGAN      PTCLDY    33  27  78 E7        30.43R WCI  27
WEST BEND      PTCLDY    32  27  80 E7        30.40S WCI  26
JUNEAU         CLEAR     33  24  68 E10       30.39R WCI  25
$$

LSZ147-162-191000-
LAKE SUPERIOR

STATION/POSITION TIME  TEMP    WIND        PRES    WAVE
                       AIR SEA DIR/SP/G            HT/PER
                 (UTC) (F)     (DEG/KT/KT) (MB)    (FT/S)
DEVILS ISLAND    0900   33     110/ 13/ 14 1028.1F
PORT WING        0900   38     110/  6/ 20 1024.7F
SAXON HARBOR     0800           CALM  /  6 1026.8F
$$

LMZ867-665-643>646-191000-
LAKE MICHIGAN

STATION/POSITION TIME  TEMP    WIND        PRES    WAVE
                       AIR SEA DIR/SP/G            HT/PER
                 (UTC) (F)     (DEG/KT/KT) (MB)    (FT/S)
NORTHPORT PIER   0800   30      90/  2/  4 1031.2R
SISTER BAY       0823   28        CALM       N/A
KEWAUNEE LAKESHO 0800   34      80/  8/ 11 1031.0F
SHEBOYGAN LAKESH 0900   36      80/ 12/ 13 1031.4R
PORT WASHINGTON  0800   36      40/  6/  8 1030.5R
MILWAUKEE LAKESH 0900   36      50/  9/ 10   N/A
KENOSHA   LAKESH 0900   36      50/ 11/ 13   N/A
$$

TC  - TEMPERATURE IN CELSIUS
VSB - VISIBILITY IN STATUTE MILES
WCI - WIND CHILL INDEX
HX  - HEAT INDEX




USA.gov is the U.S. government's official web portal to all federal, state and local government web resources and services.